Regional Weather Roundup
Issued by NWS Midland/Odessa, TX

Skip options and go directly to product.
Home | Oldest Version | Previous Version | Current Version | All | Text Only | Save Text | Print | Product List | Glossary On

Skip product version selection by date and time.   
067
ASUS44 KMAF 230110
RWRMAF
MIDLAND AREA WEATHER ROUNDUP
NATIONAL WEATHER SERVICE MIDLAND TX
800 PM CDT FRI AUG 22 2014

...IN SOUTHWEST TEXAS AND SOUTHEAST NEW MEXICO...

CITY           SKY/WX    TMP DP  RH WIND       PRES   REMARKS
ALPINE         MOCLDY    85  54  33 S8        30.11S
ANDREWS        FAIR      90  52  26 S14       29.97R
ARTESIA        PTCLDY    82  59  44 SE24G32   30.02R
BIG SPRING     CLEAR     94  53  24 SE17      29.97S
CARLSBAD       CLOUDY    85  59  41 NW6       29.96S
DRYDEN           N/A     97  56  25 E17G24    29.92R
FORT STOCKTON  PTCLDY    89  56  32 SE14G22   29.95R
GUAD PASS      PTCLDY    74  57  55 W22       30.13F
HOBBS          TSTM      77  63  61 SW22G41   30.03R
MARFA          PTCLDY    81  54  39 SW7       30.12S
MIDLAND AIRPK  CLEAR     92  53  26 SE16      29.96R
MIDLAND INTL   CLEAR     92  53  26 SE14      29.95S
ODESSA         CLEAR     91  52  26 S12       29.97R
PECOS          TSTM      75  66  72 CALM      29.95S
PRESIDIO       CLOUDY    87  62  42 CALM      29.94R
SEMINOLE       MOCLDY    90  51  26 SE15G23   29.98R
SNYDER         CLEAR     93  48  21 SE13      29.96S
WINK           MOCLDY    76  69  79 W5        29.94R
$$
...OTHER STATIONS IN TEXAS...

CITY           SKY/WX    TMP DP  RH WIND       PRES   REMARKS
ABILENE        CLEAR     94  47  20 S14G23    29.95F
AMARILLO       CLEAR     89  53  29 S18       29.95S
AUSTIN         PTCLDY    95  63  34 S13       29.94S
BROWNSVILLE    CLEAR     85  74  69 E13G22    29.99R
CORPUS CHRISTI PTCLDY    86  73  65 SE18      29.98R
DALLAS FTW     CLEAR     94  59  31 S10       29.92F
DEL RIO        CLEAR     98  45  16 SE12      29.87S
EL PASO        MOCLDY    76  61  59 SE6       30.04F
HOUSTON INT    PTCLDY    88  73  61 S10       30.00R
LUBBOCK        PTCLDY    89  54  30 S15       29.96F
SAN ANGELO     CLEAR     92  50  23 SE14      29.95S
SAN ANTONIO    PTCLDY    95  60  31 SE23      29.96S
WACO           CLEAR     94  60  32 S10       29.94F
WICHITA FALLS  NOT AVBL
$$
...OTHER LOCATIONS IN NEW MEXICO...

CITY           SKY/WX    TMP DP  RH WIND       PRES   REMARKS
ALAMAGORDO     CLOUDY    73  61  64 S7        30.07F
ALBUQUERQUE    LGT RAIN  68  55  63 W28       30.19R
CANNON AFB     MOCLDY    72  61  68 E1        30.03R
CLOVIS           N/A     70  63  78 W20       30.05F THUNDER
HOLLOMAN AFB   MOCLDY    75  63  64 S9        30.05F
ROSWELL        PTCLDY    86  54  33 SW12      29.97R
RUIDOSO        CLOUDY    63  57  82 NW5       30.23S
SANTA FE       PTCLDY    67  50  54 NW5       30.19S
TRUTH OR CONSE PTCLDY    78  59  51 SE14      30.06S
TUCUMCARI      PTCLDY    83  54  36 W12       29.97F
$$

USA.gov is the U.S. government's official web portal to all federal, state and local government web resources and services.